Weather History for KUNV - February, 2014

Change the Weather History Date:

Wednesday, February 12, 2014

  Actual Average Record
Temperature  
Mean Temperature 8 °F -  
Max Temperature 21 °F 35 °F 57 °F (1940)
Min Temperature -5 °F 17 °F -5 °F (2014)
Degree Days  
Heating Degree Days 57    
Moisture  
Dew Point -3 °F    
Average Humidity 60    
Maximum Humidity 78    
Minimum Humidity 36    
Precipitation  
Precipitation 0.00 in - - ()
Sea Level Pressure  
Sea Level Pressure 30.34 in    
Wind  
Wind Speed 1 mph (SSE)    
Max Wind Speed 9 mph    
Max Gust Speed -    
Visibility 10 miles    
Events      
Averages and records for this station are not official NWS values.
T = Trace of Precipitation, MM = Missing Value Source: NWS Daily Summary

Daily Weather History Graph

Daily Weather History Graph

Search for Another Location

Airport or City:

Trip Planner

Search our weather history database for the weather conditions in past years. The results will help you decide how hot, cold, wet, or windy it might be!

Date:

Astronomy

Feb. 12, 2014 Rise Set
Actual Time 7:09 AM EST 5:42 PM EST
Civil Twilight 6:41 AM EST 6:10 PM EST
Nautical Twilight 6:08 AM EST 6:42 PM EST
Astronomical Twilight 5:36 AM EST 7:14 PM EST
Moon 3:54 PM EST (2/12) 5:25 AM EST (2/12)
Length of Visible Light 11h 29m
Length of Day
10h 33m
Waxing Gibbous, 95% of the Moon is Illuminated
Feb 12
Waxing Gibbous
Feb 14
Full
Feb 22
Last Quarter
Mar 1
New
Mar 8
First Quarter

Hourly Weather History & Observations

Time (EST) Temp. Windchill Dew Point Humidity Pressure Visibility Wind Dir Wind Speed Gust Speed Precip Events Conditions
12:15 AM 8.6 °F - -2.6 °F 61% 30.43 in 10.0 mi Calm Calm - N/A   Clear
12:35 AM 9.0 °F - -2.2 °F 61% 30.43 in 10.0 mi Calm Calm - N/A   Clear
12:55 AM 5.5 °F - -4.4 °F 64% 30.43 in 10.0 mi Calm Calm - N/A   Clear
1:15 AM 6.6 °F - -3.3 °F 64% 30.43 in 10.0 mi Calm Calm - N/A   Clear
1:35 AM 8.1 °F - -2.9 °F 61% 30.43 in 10.0 mi Calm Calm - N/A   Clear
1:55 AM 5.4 °F -3.6 °F -4.2 °F 65% 30.43 in 10.0 mi North 4.6 mph - N/A   Clear
2:15 AM 4.3 °F - -4.7 °F 66% 30.44 in 10.0 mi Calm Calm - N/A   Scattered Clouds
2:35 AM 2.5 °F - -5.3 °F 70% 30.44 in 10.0 mi Calm Calm - N/A   Scattered Clouds
2:55 AM 1.9 °F - -4.2 °F 76% 30.43 in 10.0 mi Calm Calm - N/A   Mostly Cloudy
3:15 AM 1.6 °F - -4.5 °F 76% 30.42 in 10.0 mi Calm Calm - N/A   Mostly Cloudy
3:35 AM -0.0 °F -9.9 °F -7.4 °F 71% 30.42 in 10.0 mi North 4.6 mph - N/A   Scattered Clouds
3:55 AM -0.4 °F - -6.7 °F 75% 30.42 in 10.0 mi Calm Calm - N/A   Scattered Clouds
4:15 AM 1.0 °F - -5.4 °F 74% 30.42 in 10.0 mi Calm Calm - N/A   Scattered Clouds
4:35 AM -0.4 °F - -6.2 °F 77% 30.41 in 10.0 mi Calm Calm - N/A   Scattered Clouds
4:55 AM -3.3 °F -11.6 °F -9.6 °F 74% 30.41 in 10.0 mi South 3.5 mph - N/A   Scattered Clouds
5:15 AM 0.3 °F - -6.0 °F 75% 30.41 in 10.0 mi Calm Calm - N/A   Clear
5:35 AM -1.5 °F - -8.1 °F 73% 30.42 in 10.0 mi Calm Calm - N/A   Clear
5:53 AM -0.4 °F -8.3 °F -5.8 °F 78% 30.43 in 10.0 mi West 3.5 mph - N/A   Clear
6:53 AM -5.8 °F - -11.2 °F 77% 30.43 in 10.0 mi Calm Calm - N/A   Clear
7:53 AM -2.2 °F - -9.4 °F 71% 30.43 in 10.0 mi Calm Calm - N/A   Clear
8:53 AM -0.4 °F - -5.8 °F 78% 30.42 in 10.0 mi Calm Calm - N/A   Clear
9:53 AM 5.0 °F - -2.2 °F 72% 30.42 in 10.0 mi Calm Calm - N/A   Clear
10:53 AM 8.6 °F - -2.2 °F 62% 30.43 in 10.0 mi Calm Calm - N/A   Mostly Cloudy
11:53 AM 14.0 °F - -2.2 °F 49% 30.38 in 10.0 mi Calm Calm - N/A   Mostly Cloudy
12:53 PM 17.6 °F - -0.4 °F 45% 30.37 in 10.0 mi Calm Calm - N/A   Mostly Cloudy
1:53 PM 19.4 °F - -2.2 °F 39% 30.32 in 10.0 mi Calm Calm - N/A   Mostly Cloudy
2:53 PM 19.4 °F - -2.2 °F 39% 30.29 in 10.0 mi Calm Calm - N/A   Mostly Cloudy
3:53 PM 21.2 °F - -2.2 °F 36% 30.28 in 10.0 mi Calm Calm - N/A   Mostly Cloudy
4:53 PM 19.4 °F 8.6 °F -2.2 °F 39% 30.25 in 10.0 mi ESE 9.2 mph - N/A   Clear
5:53 PM 17.6 °F 7.3 °F -4.0 °F 38% 30.25 in 10.0 mi ESE 8.1 mph - N/A   Clear
6:53 PM 17.6 °F 12.3 °F -2.2 °F 42% 30.25 in 10.0 mi South 3.5 mph - N/A   Clear
7:53 PM - - - N/A% 30.23 in 10.0 mi South 3.5 mph - N/A   Clear
7:54 PM 17.6 °F 12.3 °F -2.2 °F 42% 30.23 in 10.0 mi South 3.5 mph - N/A   Clear
8:53 PM 17.6 °F 12.3 °F -0.4 °F 45% 30.21 in 10.0 mi SE 3.5 mph - N/A   Clear
8:54 PM 17.6 °F - -0.4 °F 45% 30.21 in 10.0 mi Calm Calm - N/A   Scattered Clouds
9:20 PM 17.6 °F - 1.4 °F 49% 30.21 in 7.0 mi Calm Calm - N/A   Overcast
9:55 PM 18.3 °F - 3.9 °F 53% 30.20 in 10.0 mi Calm Calm - N/A   Overcast
10:15 PM 18.3 °F - 3.9 °F 53% 30.20 in 10.0 mi Calm Calm - N/A   Mostly Cloudy
10:35 PM 18.1 °F - 4.1 °F 54% 30.20 in 10.0 mi Calm Calm - N/A   Mostly Cloudy
10:55 PM 18.3 °F - 4.8 °F 56% 30.19 in 10.0 mi Calm Calm - N/A   Overcast
11:15 PM 18.5 °F - 5.2 °F 56% 30.17 in 10.0 mi Calm Calm - N/A   Overcast
11:35 PM 18.0 °F - 5.7 °F 59% 30.17 in 10.0 mi Calm Calm - N/A   Overcast
11:55 PM 18.5 °F - 5.7 °F 58% 30.17 in 10.0 mi Calm Calm - N/A   Overcast